Location: Julian California
(33.0790°N, 116.6010°W)
Time: 23:42:50
(UTC-08:00)

Cosmos 407 Rocket - Pass Details

Date: 12 July 2018
Orbit: 744 x 786 km, 74.0° (Epoch: 21 November)

Event Time Altitude Azimuth Distance (km) Brightness Sun altitude
Rises 20:18:18 0° 207° (SSW) 3,182 6.7 -4.7°
Reaches altitude 10° 20:20:41 10° 211° (SSW) 2,267 6.0 -5.2°
Maximum altitude 20:25:43 54° 289° (WNW) 914 4.4 -6.1°
Drops below altitude 10° 20:30:50 10° 7° (N) 2,306 6.3 -7.0°
Sets 20:33:17 0° 12° (NNE) 3,243 7.0 -7.4°
